Showing default

ATS 3, 3029

Orbit data source: Space-Track

ATS 3, 3029 is a payload satellite owned by GSFC (US) in GEO that was launched on Sun, 05 Nov 1967 UTC via an ATLAS SLV-3 AGENA D launch vehicle from the Air Force Eastern Test Range (AFETR). Payloads include a variety of satellites, spacecraft, and rockets equipped with specific instruments for various scientific and technological missions. These include communications satellites like Starlink; space stations such as the ISS; scientific satellites like the Hubble; Earth observation satellites from companies like Planet Labs, Umbra, and HawkEye 360; GPS; miniature CubeSats for education and research; and military/defense satellites.

Loading next visibility...
ATS 3 details
Identifier
3029, 1967-111A
Orbit
GEO
Last TLE update23 hours ago
Origin
Flag of USGSFC (US)
ManufacturerHughes
MissionNon-operational Civil Com/Cal
Bus & MotorHS-306, JPL SR-28-3
Mass714 kg wet, 252 kg dry
Launch date (UTC)
1967-11-05 (57 years ago)
Launch vehicle
ATLAS SLV-3 AGENA D
Launch site
Air Force Eastern Test Range (AFETR)
Object type
Payload
Rocket body
Debris
Shape & HBRCyl, 1.6 m
Radar Cross Section2.769 m², Large (>1 m²)

Expand to show TLE details & history

TLE from 23 hours ago
0 ATS 3
1 03029U 67111A   24355.60920416 -.00000079  00000-0  00000-0 0  9994
2 03029   1.7756  84.4833 0015644  21.5323  97.8686  1.00271409209186
Epoch: 2024-12-20T14:37Z
Definitive object data (Epoch: 2024-12-20T14:37:15.239Z)
Latitude1.53952°
Longitude-104.90537°
Altitude35,795.323 km
Speed3.074 km/s
True Right ascension13h 36m 19s
True Declination1° 32' 17"
Sunlit
Object was in daylight at TLE epoch
Visualization TLE readout
Latitude1.66509°
Longitude-114.10697°
Altitude35,784.688 km
Speed3.075 km/s
Apparent Right ascension12h 59m 37s
Apparent Declination-4° 22' 15"
Sunlit
Object is in daylight
Visualization observer readout
Local Sidereal Time12:58:40
Azimuth179.662° S
Elevation45.712°
Doppler factor1
Orbital elements
Apogee altitude35,853.734 km
Perigee altitude35,721.805 km
Semi-major axis42,165.906 km
Eccentricity0.0015644
Inclination1.7756°
RAAN84.4833°
Arg. of periapsis21.5323°
True anomaly98.04613°
Mean anomaly97.8686°
Eccentric anomaly97.95737°
Mean motion0.25067 °/min
BSTARUnknown
Orbital period1436.16 mins
Loading historical data...
3029 neighbors
Authenticating...
Loading maneuver chart data...
Loading historical data...
Loading historical data...
Loading historical data...
Loading historical data...
Loading historical data...
Loading historical data...
Loading historical data...
Other satellites on launch #111 in the year 1967 (1967-11-05 UTC)

ATS 3 Visibility forecast

Observer location: undefined°, undefined

Span
Click to sort rows by Start time (UTC) header in descending order
Start Az.
Max El. time (UTC)
Max El. Az.
Max El.
End time (UTC)
End Az.
1440 mins2024-12-21 13:56:37.905Z179.663° S2024-12-22 12:33:37.905Z179.7° S35.65°2024-12-22 13:56:37.905Z179.667° S
|